Location: Cerezo de Arriba
(41.2389°N, 3.5585°W)
Time: 04:38:48
(UTC+00:00)

BlueWalker 3 - Pass Details

Date: 19 May 2025
Orbit: 460 x 472 km, 53.2° (Epoch: 23 June)

Event Time Altitude Azimuth Distance (km) Brightness Sun altitude
Rises 21:03:11 0° 313° (NW) 2,494 7.4 -14.9°
Reaches altitude 10° 21:05:39 10° 329° (NNW) 1,619 5.8 -15.3°
Maximum altitude 21:08:38 23° 24° (NNE) 1,021 3.7 -15.7°
Enters shadow 21:11:04 13° 73° (ENE) 1,443 4.0 -16.0°
